Retour au catalogue

STARLINK-31472

ActifCommunicationsVLEO
NORAD 59730·PAYLOAD·🇺🇸 United States

Lancé May 13, 2024 depuis Cape Canaveral Space Force Station

Loading…

Prochains Passages (prochaines 24 heures)

TLE

FraisSource: CelesTrak SupGP

Époque: Sep 14, 2026, 21:51 UTC

1 59730C 24090A   26257.91090278  .00054346  00000+0  15504-2 0  2572
2 59730  42.9978 192.7264 0009203 177.9741 190.0424 15.35146013    16

Suivez STARLINK-31472 en temps réel avec AllMySat

Download on the App Store